OBJECT D, 66669

Orbit data source: Space-Track

You're viewing an Uncataloged Satellite

Recently launched and/or uncataloged satellites may have evolving metadata. Metadata may include but not limited to: Owner, Maufacturer, Bus, Motor, and Mission.

OBJECT D, 66669 is a satellite in SSO that was launched on Fri, 28 Nov 2025 UTC via an FALCON 9 launch vehicle from the Air Force Western Test Range (AFWTR). Unknown objects in Earth's orbit typically refer to objects detected orbiting the Earth but have not yet been identified or cataloged. These objects could be anything from previously untracked satellites, spent rocket stages, debris from satellite collisions, or even natural meteoroids temporarily captured by Earth's gravity.

Loading next visibility...
Identifier
66669, 2025-276D
Orbit
SSO
Country
Flag of TBDTBD
Related business
None
Manufacturer
Unknown
Mission
Operational Commercial Imaging
Bus & Motor
Unknown
Mass
Unknown
Launch date (UTC)
2025-11-28 (6 months ago)
Launch vehicle
FALCON 9
Launch site
Air Force Western Test Range (AFWTR)
Object type
Unknown
Shape & HBR
Box, 0.4 m
Radar Cross Section
0.542 m²

Expand to show TLE details & history
Last TLE update: 1 day ago

TLE from 1 day ago
0 OBJECT D
1 66669U 25276D   26144.17489498  .00021702  00000-0  84603-3 0  9998
2 66669  97.4071 218.5823 0008384 103.3917 256.8256 15.25935625 26824
Epoch: 2026-05-24T04:11Z
TLE epoch observation values (Epoch: 2026-05-24T04:11:50.926Z)
Latitude
-0.00005°
Longitude
-86.1607°
Altitude
492.393 km
Speed
7.618 km/s
True Right ascension
14h 34m 19s
True Declination
0° 00' 00"
Sunlit
Object was in full shadow at epoch
Visualization orbit readout
Latitude
Unknown
Longitude
Unknown
Altitude
Unknown
Speed
Unknown
Apparent Right ascension
Unknown
Apparent Declination
Unknown
Sunlit
N/A
Visualization observer readout
Local Sidereal Time
13:40:10
Azimuth
Unknown
Elevation
Unknown
Doppler factor
Unknown
Orbital elements
Apogee altitude
490.689 km
Perigee altitude
479.181 km
Semi-major axis
6,863.072 km
Eccentricity
0.00084
Inclination
97.4071°
RAAN
218.5823°
Arg. of periapsis
103.3917°
True anomaly
256.73208°
Mean anomaly
256.8256°
Eccentric anomaly
256.77884°
Mean motion
3.81738 °/min
Orbital period
94.31 mins
BSTAR
0.00084603
Loading maneuver chart data...
Computing Atmospheric mass density...
Loading historical data...
Loading historical data...
Loading historical data...
Loading historical data...
Loading historical data...
Loading historical data...
Loading historical data...

Documentation

Showing up to 5 results
|